Weather in Tsvetnogorsk

Russia / Republic of Khakassia     54°14′23″N   90°27′03″E
temp.,
°C
wind,
m/s
gust,
m/s
humid.,
%
clouds,
%
prec.,
mm/h
press.,
hPa
HPBL,
m
15 may, sat
sat1501:00+6w2366100 0.0 102264
04:00+6sw2264100 0.0 102229
07:00+8wsw396297 0.0 1022633
10:00+14w564785 0.0 10201066
13:00+15wnw6845100 0.0 10191411
16:00+13w6125674 0.1 1019822
19:00+14wsw8145192 0.1 1019768
22:00+13wsw7165151 0.0 1017732
16 may, sun
sun1601:00+13w9185373 0.0 1017698
04:00+14w8165098 0.0 1016707
07:00+14wsw61452100 0.0 1015662
10:00+14w4957100 0.3 1014657
13:00+19w101346100 0.4 10111651
16:00+21w91544100 0.0 10102425
19:00+14w111683100 7.2 10101036
22:00+13nw2592100 2.1 1012266
17 may, mon
mon1701:00+12ne2295100 3.0 1010146
04:00+9nne4599100 11.2 1010290
07:00+7n3595100 14.5 1013424
10:00+7nnw2491100 0.1 1016524
13:00+9n3483100 0.1 1016660
16:00+11nnw3375100 0.0 1015742
19:00+10ssw1182100 0.1 1015110
22:00+10ssw2387100 0.0 101464
18 may, tue
tue1801:00+9wsw118890 0.1 101411
04:00+8ssw3388100 0.0 101340
07:00+11sw3974100 0.0 1011339
10:00+14wsw61267100 0.1 1007943
13:00+14w81769100 1.7 10041474
16:00+10n2898100 5.4 1006370
19:00+11n3795100 7.4 1006490
22:00+10ne119768 0.8 100750
19 may, wed
wed1901:00+9n2298100 1.4 1007150
04:00+8nne2298100 0.9 1005177
07:00+7n4699100 2.3 1004388
10:00+5n5795100 7.8 1006830
13:00+4nnw589398 11.8 1008571
16:00+7nnw5773100 0.3 10081051
19:00+7n5860100 0.3 10091478
22:00+4nnw3969100 0.0 1010334